NEMO-HD

Last updated on Thu Jul 03 2025 00:02:30 GMT+0000 (Coordinated Universal Time)

1 46277U 20061F 25183.52940884 .00006636 00000+0 18925-3 0 9992 2 46277 97.2433 244.9711 0001475 136.6872 223.4489 15.36383245268158
UTC large
Height (km)
Speed (km/s)
/
Latitude / Longitude
Inclination (degrees)
Orbital Period (minutes)
Azimuth
Elevation
Range (km)
Doppler Factor

Next 0 passes for location: London (51.5072 / 0.1276)

Sorry there are no passes over London.